Startseite
Über Mich
AHP4
Galerie
Sehschlangen
Tourenbuch
Bookmarks
Elektronik
Bewertung
Geschichten
[Tagesmessung] [Jahreswerte] [Information]

Messwerte vom 21.05.2022

Die letzten Messwerte von 23:58:47 Uhr:
KategorieMesswert
Temperatur [°C]11
Luftdruck [mBar]1002
Sonneneinstrahlung0
Wind [km/h]0 aus Südost
Niederschlag [l/m²]0
rel.Luftfeucht.88%
CO2 [ppm]422

Diagramme
Messwerte vom 21.05.2022
Tagesaggregation
KategorieMinimumMaximumSchnittSumme
Temperatur [°C]102514.8563
Luftdruck [mBar]99610031001.2917
Sonneneinstrahlung248137.0417
Wind [km/h]23
rF [%]44.596.680.9
Niederschlag [l/m²]0.515
CO2 [ppm]396430407.4
Einordnung alsVegetationstag
Sommertag

Messungen an benachbarten Tagen: Zur Jahresaggregation 2022
Tabelle aller Messwerte
UhrzeitTemperatur [°C]Luftdruck [mBar]SonneWind [km/h]RichtungRegen [l/m²]rF [%]CO2 [ppm]
00:01:47 15 996 0 4 O 0 92.8 404
00:04:45 15 997 0 6 O 0 93.1 404
00:07:45 15 996 0 9 O 0 93.3 407
00:10:48 15 997 0 4 0 93.1 404
00:13:47 15 997 0 10 S 0 93.2 407
00:16:49 15 996 0 15 NW 0 93.4 404
00:19:46 15 996 0 3 S 0 93.4 404
00:22:45 15 997 0 4 S 0 93.3 404
00:25:48 15 996 0 8 W 0 93.3 407
00:28:47 15 996 0 7 SW 0 93.4 404
00:31:48 15 996 0 2 SO 0 93 404
00:34:47 15 997 0 4 W 0 92.8 401
00:37:46 15 997 0 5 SO 0 93.7 404
00:40:44 15 997 0 6 S 0 93.7 407
00:43:46 14 997 0 4 W 0 94.2 407
00:46:45 14 997 0 2 W 0 94.3 404
00:49:49 14 996 0 11 SO 0 94 406
00:52:46 14 998 0 7 N 0 94.2 408
00:55:46 14 997 0 2 S 0 93.9 403
00:58:46 14 998 0 1 S 0 93.9 407
01:01:47 14 998 0 1 SW 0 94 404
01:04:46 14 998 0 3 N 0 94 407
01:07:45 14 998 0 7 NW 0 94.4 404
01:10:48 14 998 0 3 NO 0 94.5 407
01:13:46 14 998 0 3 W 0 94.4 404
01:16:50 14 998 0 9 SW 0 94.1 407
01:19:46 14 998 0 1 S 0 94.3 410
01:22:47 14 998 0 3 SO 0 95 407
01:25:47 14 998 0 2 SO 0 95.3 407
01:28:46 14 998 0 2 W 0 95.2 407
01:31:51 14 998 0 2 SW 0 95 407
01:34:45 14 998 0 4 SO 0 95 404
01:37:46 14 998 0 6 SW 0 94.6 407
01:40:49 14 998 0 3 SW 0 94.6 406
01:43:46 14 998 0 3 W 0 94.6 404
01:46:47 14 998 0 1 W 0 94.3 404
01:49:47 14 998 0 7 W 0 94.1 407
01:52:48 14 998 0 2 SO 0 94.2 406
01:55:47 14 998 0 7 SO 0 94.2 407
01:58:47 13 998 0 1 SW 0 94 404
02:01:46 13 998 0 3 W 0 93.9 404
02:04:47 13 998 0 1 SW 0 94.1 407
02:07:45 13 998 0 1 O 0 94.1 404
02:10:48 13 998 0 3 SO 0 94.2 407
02:13:48 13 998 0 2 SO 0 94.2 406
02:16:46 13 998 0 4 W 0 94.2 404
02:19:48 13 999 0 2 N 0 94.3 407
02:22:45 13 998 0 2 S 0 94.5 401
02:25:46 13 998 0 4 W 0 94.6 407
02:28:48 13 998 0 3 SW 0 94.8 407
02:31:48 13 999 0 6 SO 0 94.9 407
02:34:48 13 998 0 2 SO 0 95 407
02:37:47 13 998 0 2 W 0 95 407
02:40:47 13 998 0 4 NW 0 94.9 406
02:43:46 13 998 0 3 SW 0 94.7 404
02:46:49 13 999 0 7 NW 0 94.4 404
02:49:49 13 999 0 6 S 0 94.1 407
02:52:46 13 999 0 4 W 0 94.1 407
02:55:48 13 999 0 2 SO 0 94.2 404
02:58:46 13 998 0 4 NW 0 93.9 407
03:01:46 13 998 0 7 NO 0 93.8 407
03:04:46 13 999 0 3 NW 0 93.8 407
03:07:46 13 999 0 19 W 0 93.8 404
03:10:45 13 999 0 5 O 0 93.5 406
03:13:46 13 999 0 3 N 0 93.1 407
03:16:46 13 998 0 8 O 0 93 416
03:19:46 13 999 0 1 W 0 93.1 407
03:22:48 12 999 0 4 SW 0 93.2 406
03:25:46 12 999 0 1 W 0 93.5 404
03:28:46 12 999 0 3 W 0 93.7 404
03:31:44 12 999 0 5 O 0 93.7 407
03:34:50 12 1000 0 7 SW 0 93.6 407
03:37:45 12 999 0 5 W 0 93.2 410
03:40:47 12 1000 0 3 SW 0 93.5 410
03:43:47 12 999 0 3 NW 0 93.7 407
03:46:48 12 1000 0 5 S 0 94 403
03:49:45 12 999 0 0 N 0 94.1 406
03:52:46 12 1000 0 3 W 0 94.1 406
03:55:46 12 999 0 3 NW 0 94.1 404
03:58:46 12 1000 0 3 N 0 93.9 406
04:01:47 12 1000 0 6 NW 0 93.7 404
04:04:46 12 1000 0 2 S 0 93.6 407
04:07:47 12 1000 0 3 S 0 93.5 407
04:10:46 12 1000 0 4 SW 0 93.5 403
04:13:48 12 1000 0 1 SO 0 93.6 410
04:16:45 12 1001 0 3 S 0 93.2 404
04:19:52 12 1000 0 4 NO 0 92.9 404
04:22:47 12 1001 0 9 W 0 92.6 405
04:25:49 11 1000 0 8 SW 0 91.9 402
04:28:45 11 1000 0 5 O 0 91.7 407
04:31:45 11 1001 0 2 S 0 91.7 404
04:34:48 11 1001 0 3 NW 0 91.6 404
04:37:48 11 1001 0 1 W 0 91.7 406
04:40:46 11 1001 0 8 S 0 92.1 407
04:43:45 11 1001 3 4 0 92.4 410
04:46:46 11 1001 4 1 NW 0 92.8 410
04:49:46 10 1001 6 4 SW 0 93.3 407
04:52:47 10 1001 9 1 SW 0 93.7 404
04:55:46 10 1001 9 1 W 0 94.2 406
04:58:46 11 1001 18 2 W 0 94.6 407
05:01:47 11 1002 23 0 O 0 94.7 404
05:04:45 11 1001 33 1 O 0 94.7 404
05:07:47 10 1002 43 1 SO 0 94.7 407
05:10:48 10 1001 53 2 NO 0 94.8 404
05:13:47 10 1002 64 1 W 0 95.2 406
05:16:46 10 1002 71 3 SO 0 95.3 407
05:19:46 10 1002 81 2 O 0 95.5 404
05:22:48 10 1002 89 1 SW 0 95.6 407
05:25:49 10 1001 97 2 NW 0 96.1 407
05:28:47 10 1002 91 0 S 0 96.1 404
05:31:50 10 1001 109 4 SO 0 96.5 407
05:34:49 10 1002 113 2 NW 0 96.4 403
05:37:50 10 1002 125 1 W 0 96.4 407
05:40:47 10 1002 131 1 SO 0 96.3 404
05:43:48 10 1002 136 0 S 0 96.3 407
05:46:48 10 1002 138 0 NO 0 96.3 406
05:49:47 10 1002 138 1 0 96.5 410
05:52:46 10 1002 136 0 O 0 96.6 404
05:55:48 10 1002 135 0 NO 0 96.6 407
05:58:49 11 1002 138 0 SO 0 96.6 407
06:01:52 11 1002 140 0 SO 0 96.6 407
06:04:51 11 1002 142 1 NW 0 96.6 409
06:07:50 11 1002 155 2 S 0 96.6 407
06:10:48 11 1002 149 2 W 0 96.6 410
06:13:49 11 1002 141 1 SO 0 96.5 407
06:16:51 11 1002 136 2 SW 0 96.4 413
06:19:48 11 1002 147 1 SO 0 96.2 413
06:22:47 11 1002 151 4 SO 0 96.1 415
06:25:47 11 1002 163 1 W 0 96 406
06:28:47 11 1002 161 0 O 0 95.9 404
06:31:49 11 1002 158 1 S 0 95.5 410
06:34:48 11 1002 163 0 O 0 95.3 410
06:37:47 11 1002 165 0 S 0 94.9 410
06:40:48 11 1002 176 0 S 0 94.6 415
06:43:47 12 1002 178 3 S 0 94.5 413
06:46:50 12 1002 179 1 NW 0 94.2 410
06:49:47 12 1002 180 4 S 0 93.5 406
06:52:48 12 1002 184 4 SO 0 92 404
06:55:50 12 1002 188 3 SW 0 91.5 404
06:58:47 12 1002 190 1 S 0 91.2 410
07:01:48 12 1002 188 3 SW 0 90.9 410
07:04:49 12 1002 188 2 SO 0 90.4 409
07:07:47 12 1002 191 0 S 0 89.9 407
07:10:50 12 1002 194 3 S 0 89.8 404
07:13:47 12 1002 197 5 SW 0 89.6 413
07:16:47 12 1002 197 1 SW 0 89 415
07:19:46 12 1002 198 2 S 0 89 413
07:22:52 12 1002 202 0 W 0 88.6 407
07:25:48 14 1002 205 6 W 0 87.5 407
07:28:47 15 1002 201 6 SW 0 79.4 404
07:31:50 15 1002 200 2 SO 0 76.8 404
07:34:49 14 1002 200 2 SW 0 76.9 404
07:37:46 14 1002 201 4 S 0 78.3 407
07:40:48 13 1002 200 1 S 0 80.3 407
07:43:50 13 1002 200 3 NW 0 81.6 413
07:46:48 13 1001 201 4 SO 0 82.1 410
07:49:49 13 1001 199 3 SO 0 82.6 404
07:52:46 13 1002 195 2 S 0 83.1 409
07:55:50 13 1002 199 3 S 0 83.7 410
07:58:47 13 1002 203 7 O 0 83.7 413
08:01:50 13 1002 200 3 SW 0 83.9 406
08:04:50 13 1002 194 5 S 0 84.3 407
08:07:50 13 1002 203 2 S 0 84.1 404
08:10:48 13 1002 201 12 W 0 84.5 409
08:13:49 13 1002 196 2 O 0 84.3 404
08:16:50 13 1002 194 3 S 0 83.9 406
08:19:50 13 1002 196 4 W 0 83.5 404
08:22:49 13 1002 202 4 SW 0 83.2 401
08:25:53 13 1002 202 8 SW 0 84 408
08:28:48 13 1002 198 4 SO 0 84.3 407
08:31:48 13 1002 192 2 W 0 84 405
08:34:48 13 1002 195 8 SO 0 84.1 404
08:37:47 13 1002 194 2 SW 0 84.1 407
08:40:49 13 1002 193 4 SW 0 84 396
08:43:49 13 1002 186 3 SO 0 83.6 413
08:46:48 13 1002 192 1 S 0 83.1 416
08:49:49 13 1002 205 6 S 0 83.1 415
08:52:47 13 1002 190 4 SW 0 83 413
08:55:50 13 1002 187 1 SW 0 82.6 410
08:58:47 13 1002 191 7 S 0 82.6 410
09:01:49 13 1002 178 1 SO 0 83.1 410
09:04:48 13 1002 189 1 SW 0 83.5 410
09:07:48 13 1002 179 2 SO 0 83.5 407
09:10:49 13 1002 180 5 S 0 83.9 407
09:13:49 13 1002 178 3 SO 0 83.2 401
09:16:49 13 1002 183 2 NW 0 83.6 407
09:19:47 13 1002 163 1 W 0 83.5 404
09:22:51 13 1002 188 11 W 0 84 403
09:25:48 13 1002 175 3 SW 0 84.3 407
09:28:49 13 1002 186 2 W 0 84.8 407
09:31:49 13 1002 184 5 SW 0 84.2 407
09:34:49 13 1002 214 2 S 0 84.2 407
09:37:47 13 1002 190 7 SO 0 84.2 407
09:40:47 13 1002 216 6 S 0 83.4 407
09:43:50 14 1002 207 3 O 0 83.5 407
09:46:47 14 1002 175 2 S 0 83.5 407
09:49:50 14 1002 209 3 SW 0 83.1 407
09:52:49 14 1002 196 3 SW 0 83.1 407
09:55:48 14 1002 182 7 SW 0 83.1 407
09:58:48 13 1002 173 3 S 0 82.2 404
10:01:47 13 1002 195 2 N 0 83.3 407
10:04:47 13 1002 193 1 S 0 84 405
10:07:47 13 1002 198 2 SO 0 84.2 407
10:10:46 14 1002 203 7 O 0 84.4 410
10:13:48 14 1002 217 16 W 0 83.9 406
10:16:47 14 1002 219 10 S 0 83.1 407
10:19:45 14 1002 219 4 O 0 83.4 401
10:22:50 14 1002 217 3 SO 0 82.9 407
10:25:47 14 1002 217 6 S 0 82.3 407
10:28:48 14 1002 219 6 SO 0 81 413
10:31:47 14 1002 214 3 SW 0 80.6 413
10:34:47 14 1002 215 9 S 0 79.7 416
10:37:49 14 1002 222 7 NO 0 80.1 407
10:40:47 14 1002 216 9 S 0 79.9 406
10:43:49 15 1002 226 6 S 0 79.9 404
10:46:50 15 1002 217 3 SW 0 78.8 412
10:49:49 15 1002 209 5 SO 0 78.6 416
10:52:47 15 1002 222 13 S 0 78.4 409
10:55:50 16 1002 218 23 S 0 79.1 404
10:58:48 16 1002 227 3 SW 0 78.1 407
11:01:48 17 1002 229 7 SW 0 76.1 407
11:04:48 17 1002 225 18 O 0 72.4 407
11:07:48 17 1002 227 8 S 0 72.1 404
11:10:49 17 1002 217 2 W 0 72 407
11:13:48 16 1002 198 3 W 0 73 406
11:16:47 16 1002 198 4 SW 0 73.7 404
11:19:48 15 1002 203 4 NW 0 74.2 407
11:22:49 15 1002 206 3 NO 0 77 404
11:25:48 15 1002 213 3 SO 0 77.7 404
11:28:46 15 1002 213 3 S 0 78.2 407
11:31:50 15 1002 211 16 NW 0 76.9 404
11:34:48 15 1002 186 6 SO 0 76.4 407
11:37:48 15 1002 190 7 SW 0 76.6 410
11:40:49 15 1002 202 7 S 0 79.3 409
11:43:46 15 1002 218 2 S 0 80.5 404
11:46:46 15 1002 221 1 O 0 82.1 407
11:49:49 15 1002 226 2 W 0 80.7 407
11:52:48 16 1002 228 7 S 0 78.1 407
11:55:45 16 1002 228 3 S 0 77.1 404
11:58:48 16 1002 219 4 S 0 77.3 407
12:01:46 17 1002 199 3 S 0 75.3 408
12:04:52 17 1002 186 3 NW 0 72.5 406
12:07:49 16 1002 200 8 S 0 71.9 406
12:10:48 16 1002 209 5 W 0 75.1 406
12:13:47 15 1002 212 3 S 0 76.4 410
12:16:47 15 1002 210 3 S 0 77.7 413
12:19:49 15 1002 217 2 S 0 77.4 409
12:22:47 15 1002 226 8 SO 0 77.9 404
12:25:47 16 1002 229 3 O 0 77.6 407
12:28:49 16 1002 226 3 W 0 76.1 408
12:31:49 17 1002 215 6 NW 0 74.2 404
12:34:47 16 1002 213 8 W 0 71.7 407
12:37:50 16 1002 226 6 SW 0 71.4 413
12:40:49 16 1002 227 7 SO 0 72 410
12:43:48 17 1002 218 7 S 0 72.3 407
12:46:47 17 1002 216 7 N 0 71.7 407
12:49:48 16 1002 223 10 W 0 71.5 408
12:52:47 16 1002 217 3 W 0 72.3 410
12:55:50 16 1002 207 4 SO 0 72.7 404
12:58:50 17 1002 214 3 NW 0 72.9 406
13:01:49 17 1002 227 7 W 0 73.2 407
13:04:48 17 1002 228 3 S 0 71.5 404
13:07:48 17 1002 226 7 W 0 72.7 404
13:10:50 17 1002 213 9 SW 0 72.8 407
13:13:47 17 1002 195 6 O 0 71.8 407
13:16:32 16 1002 216 6 SW 0.2575 64.5 407
13:19:49 15 1002 224 3 SW 0 80.5 409
13:22:33 15 1002 228 6 SW 0 57.5 407
13:25:48 15 1002 228 2 O 0 84.8 407
13:28:47 16 1002 229 7 S 0 86.7 406
13:31:48 17 1002 225 3 NW 0 86.4 407
13:34:48 17 1002 231 1 NW 0 85.3 407
13:37:46 17 1002 222 1 O 0 85.5 406
13:40:49 18 1002 228 2 W 0 82.8 404
13:43:50 19 1002 231 4 SO 0 79.5 407
13:46:48 20 1002 223 2 S 0 78 406
13:49:51 19 1002 216 13 SW 0 72.2 407
13:52:49 18 1002 217 4 SW 0 72.8 401
13:55:31 18 1002 233 11 SO 0 65.2 406
13:58:49 18 1002 234 3 S 0 82.3 407
14:01:49 19 1002 227 5 W 0 76.9 407
14:04:49 20 1002 230 9 W 0 76.2 412
14:07:51 20 1002 237 8 S 0 74.5 405
14:10:49 21 1002 227 4 SO 0 71 404
14:13:49 20 1002 225 4 SO 0 70.8 407
14:16:49 20 1002 213 2 SW 0 71 404
14:19:49 19 1002 189 2 NW 0 69.3 407
14:22:47 18 1002 226 6 NO 0 74.6 404
14:25:48 18 1002 229 1 SO 0 81.1 404
14:28:48 18 1002 233 4 SW 0 81.5 407
14:31:48 18 1002 242 5 SO 0 82.2 405
14:34:49 19 1002 241 1 NW 0 83.8 407
14:37:48 19 1002 243 4 SO 0 82.8 407
14:40:49 20 1002 242 2 SO 0 81.1 407
14:43:49 20 1002 243 1 SO 0 77.4 406
14:46:47 21 1002 237 11 SO 0 71.5 407
14:49:48 21 1002 243 3 SW 0 71.9 407
14:52:49 21 1002 233 9 W 0 69.3 404
14:55:48 20 1002 243 5 SW 0 68.9 404
14:58:46 20 1002 244 6 S 0 70 407
15:01:47 20 1002 245 4 S 0 71.6 407
15:04:50 20 1002 234 2 SO 0 67.8 404
15:07:49 20 1002 235 2 W 0 68 404
15:10:46 20 1002 236 5 S 0 70.2 404
15:13:49 20 1002 242 6 SO 0 71.8 407
15:16:49 21 1002 238 15 SO 0 70.6 407
15:19:49 21 1002 239 6 S 0 65 404
15:22:48 22 1002 246 2 S 0 64.8 404
15:25:50 22 1002 244 7 SW 0 59.2 404
15:28:49 22 1002 244 5 NW 0.2575 59.3 404
15:31:50 22 1003 239 3 SO 0 61.7 404
15:34:47 22 1002 242 6 O 0 61.9 404
15:37:48 22 1003 237 5 SO 0 62.5 407
15:40:49 22 1002 244 3 S 0 61.5 406
15:43:49 22 1002 246 15 SO 0 60.8 404
15:46:47 21 1002 228 3 N 0 60.6 407
15:49:52 21 1002 210 4 SW 0 59.5 410
15:52:48 20 1002 191 2 NW 0 59.8 413
15:55:50 19 1002 195 9 NW 0 64.6 404
15:58:48 18 1002 213 12 W 0 68.3 413
16:01:48 17 1002 222 8 S 0 72.1 410
16:04:49 17 1002 229 2 NW 0 73.2 410
16:07:48 17 1002 227 3 0 75.7 410
16:10:48 17 1002 227 2 S 0 76.3 419
16:13:48 17 1002 233 2 SW 0 76.6 421
16:16:46 18 1002 237 4 NW 0 76.5 419
16:19:47 18 1002 234 2 S 0 76.8 406
16:22:47 19 1002 214 1 N 0 76.3 406
16:25:50 19 1002 216 2 W 0 72.8 407
16:28:47 19 1002 229 3 S 0 72.4 407
16:31:48 19 1002 246 2 S 0 72.5 409
16:34:50 20 1002 246 4 S 0 70.8 404
16:37:50 21 1002 244 6 SW 0 69.7 404
16:40:48 21 1002 246 4 W 0 68.8 407
16:43:51 22 1002 246 2 W 0 66.5 407
16:46:48 22 1002 226 10 SO 0 59.5 404
16:49:47 20 1002 221 3 W 0 59.2 407
16:52:49 19 1002 239 2 W 0 61.1 407
16:55:51 20 1002 244 1 SO 0 64.2 404
16:58:47 20 1002 237 2 W 0 65.3 410
17:01:50 20 1002 237 4 SO 0 63.8 407
17:04:48 20 1002 228 3 SO 0 63 407
17:07:49 19 1002 223 3 W 0 62.6 407
17:10:48 19 1002 215 8 SW 0 63.7 407
17:13:50 19 1002 204 2 SW 0 64.6 404
17:16:48 18 1002 205 5 NW 0 64.9 404
17:19:48 18 1002 206 2 SO 0 65.7 404
17:22:47 18 1002 212 2 S 0 67 410
17:25:48 18 1002 220 0 S 0 68.4 403
17:28:48 18 1003 224 2 NW 0 68.7 406
17:31:50 18 1002 227 4 W 0 69.4 406
17:34:47 19 1002 235 4 SW 0 69.6 410
17:37:49 19 1002 239 4 S 0 69.2 407
17:40:47 20 1002 246 4 S 0 67.7 404
17:43:48 21 1002 246 8 W 0 60.3 405
17:46:47 22 1002 244 2 W 0 58.3 406
17:49:49 22 1002 241 2 S 0 58.2 404
17:52:48 22 1002 247 5 SO 0 58.8 407
17:55:48 23 1002 247 2 SO 0 58.7 407
17:58:47 24 1002 248 1 W 0 56.3 406
18:01:48 25 1002 247 4 SO 0 51.3 407
18:04:49 25 1002 247 2 O 0 50.5 407
18:07:48 24 1002 236 1 S 0 50.3 406
18:10:49 24 1002 245 4 O 0 50.5 407
18:13:48 24 1002 245 6 SW 0 51.6 407
18:16:48 24 1002 244 13 SO 0 52.4 404
18:19:47 23 1002 246 1 W 0 51.5 405
18:22:49 23 1002 246 6 SW 0 52.1 404
18:25:49 22 1002 224 2 SW 0 52.1 406
18:28:31 22 1002 213 4 0 44.5 407
18:31:45 20 1002 202 1 0 58.3 407
18:34:47 19 1002 194 2 N 0 62.2 406
18:37:49 18 1002 191 1 SW 0 63.3 408
18:40:49 18 1002 234 10 W 0 66.2 408
18:43:46 18 1002 233 1 S 0 66.7 403
18:46:49 18 1002 232 3 SW 0 67.6 401
18:49:49 18 1002 231 4 NO 0 67.6 407
18:52:49 18 1002 232 7 SW 0 67.6 407
18:55:48 18 1002 232 2 O 0 67.5 404
18:58:48 18 1002 231 2 S 0 67.8 407
19:01:49 18 1002 226 2 S 0 67.2 404
19:04:50 18 1002 225 0 SW 0 67.3 404
19:07:49 18 1002 222 1 O 0 67.8 401
19:10:49 18 1002 226 1 S 0 68.1 407
19:13:50 18 1002 227 3 SO 0 68.3 406
19:16:54 18 1002 226 1 W 0 68.2 407
19:19:48 18 1002 223 2 NW 0 65.7 407
19:22:50 18 1002 219 4 S 0 64.8 404
19:25:47 17 1002 218 3 S 0 64.7 404
19:28:48 17 1002 219 2 W 0 65.7 404
19:31:47 17 1002 217 3 0 66.7 407
19:34:48 17 1002 216 0 S 0 67.5 404
19:37:46 17 1002 217 1 NO 0 67.7 406
19:40:48 17 1002 215 0 SO 0 67.6 404
19:43:47 17 1002 212 1 N 0 67.2 404
19:46:50 17 1002 212 1 O 0 67.3 407
19:49:50 17 1002 211 0 NW 0 68.2 404
19:52:48 17 1002 209 0 S 0 69 404
19:55:48 17 1002 206 2 NO 0 69.4 413
19:58:48 17 1002 215 4 SW 0 69.2 415
20:01:51 17 1002 210 0 SO 0 69.1 410
20:04:49 17 1002 204 0 SW 0 68.8 407
20:07:50 17 1002 192 1 SW 0 68.4 407
20:10:48 16 1002 178 3 W 0 68 406
20:13:47 16 1002 168 2 NW 0 67.4 404
20:16:51 16 1002 165 0 NW 0 69.2 406
20:19:48 16 1002 165 1 NO 0 69.4 407
20:22:47 16 1002 173 4 W 0 70.1 404
20:25:50 16 1002 178 0 NW 0 70.7 401
20:28:47 16 1002 175 0 SO 0 70.6 403
20:31:48 15 1002 178 1 SW 0 70.3 407
20:34:48 15 1002 179 3 NW 0 70 409
20:37:48 15 1002 176 0 W 0 70.3 404
20:40:49 15 1002 163 1 NW 0 70.7 404
20:43:49 15 1002 156 2 NW 0 70.8 407
20:46:50 15 1002 149 1 NW 0 70.9 407
20:49:48 15 1002 142 0 NW 0 71.4 407
20:52:48 14 1002 136 0 NW 0 71.9 406
20:55:47 14 1002 127 0 NW 0 72.7 413
20:58:49 14 1002 118 0 NW 0 73.5 413
21:01:48 14 1002 110 0 NW 0 73.9 413
21:04:49 14 1002 102 0 O 0 74.6 401
21:07:48 13 1002 93 0 SW 0 74.9 409
21:10:48 13 1002 85 0 SW 0 75.7 407
21:13:48 13 1002 76 0 S 0 76.2 404
21:16:48 13 1002 66 0 S 0 76.9 406
21:19:48 13 1002 56 0 O 0 77.4 406
21:22:48 12 1002 47 0 SO 0 77.7 406
21:25:51 12 1002 38 0 SO 0 78.4 402
21:28:50 12 1002 29 0 SO 0 80 410
21:31:49 12 1003 22 0 SW 0 80.9 418
21:34:50 12 1002 17 0 SO 0 81.2 416
21:37:47 12 1002 12 0 SO 0 81.5 404
21:40:48 12 1002 8 0 SO 0 81.4 407
21:43:49 12 1002 6 0 SO 0 81.7 405
21:46:47 12 1002 4 0 SO 0 81.8 404
21:49:47 11 1002 0 0 SO 0 82.1 407
21:52:48 11 1003 0 0 SO 0 82.2 410
21:55:46 11 1002 0 0 S 0 82.6 407
21:58:45 11 1002 0 0 S 0 83 406
22:01:46 11 1002 0 0 S 0 83 412
22:04:45 11 1002 0 0 S 0 83.7 409
22:07:47 11 1002 0 0 S 0 83.7 410
22:10:48 11 1003 0 0 S 0 84 409
22:13:47 11 1003 0 0 S 0 84.3 405
22:16:48 11 1002 0 0 S 0 84.6 404
22:19:47 11 1002 0 0 S 0 84.6 410
22:22:45 11 1002 0 0 S 0 85 413
22:25:46 11 1002 0 0 S 0 85.3 415
22:28:46 11 1003 0 0 S 0 85.5 410
22:31:47 11 1002 0 0 S 0 85.7 410
22:34:48 11 1003 0 0 S 0 86.1 412
22:37:49 11 1002 0 0 S 0 86.3 415
22:40:46 11 1002 0 0 S 0 86.3 416
22:43:48 11 1002 0 0 SO 0 86.4 415
22:46:49 11 1002 0 0 SO 0 86.2 409
22:49:48 11 1002 0 0 SO 0 86.3 410
22:52:50 11 1002 0 0 SO 0 86.3 410
22:55:49 11 1002 0 0 SO 0 86.4 416
22:58:49 11 1002 0 0 SO 0 86.5 422
23:01:47 11 1002 0 0 SO 0 86.6 415
23:04:49 11 1002 0 0 SO 0 86.7 410
23:07:50 11 1002 0 0 SO 0 86.6 412
23:10:47 11 1002 0 0 SO 0 86.7 415
23:13:48 11 1002 0 0 SO 0 86.9 416
23:16:48 11 1002 0 0 SO 0 86.9 410
23:19:50 11 1002 0 0 SO 0 87 418
23:22:49 11 1002 0 0 SO 0 87 418
23:25:47 11 1002 0 0 SO 0 87.1 419
23:28:47 11 1002 0 0 SO 0 87.4 413
23:31:48 11 1002 0 0 SO 0 87.6 416
23:34:48 11 1003 0 0 SO 0 87.6 419
23:37:48 11 1002 0 0 SO 0 87.5 421
23:40:47 11 1002 0 0 SO 0 87.5 419
23:43:49 11 1003 0 0 SO 0 87.6 416
23:46:50 11 1002 0 0 SO 0 87.8 416
23:49:47 11 1002 0 0 SO 0 87.8 419
23:52:49 11 1002 0 0 SO 0 87.8 426
23:55:48 11 1002 0 0 SO 0 87.9 430
23:58:47 11 1002 0 0 SO 0 88 422

Letzte Änderung : 22-Jul-2022
Copyright Jens Köhler, Wolfsburg, Obere Dorfstraße 10d